Simultaneous Nadir Overpasses (SNOs) Predictions

Prediction of SNOs between GOES-16 and NOAA-19 Satellite Orbit:

Table of predicted SNOs for the next 14.0 days since TLE Epoch: 2/2/2017
Index Date Time (GOES-16) GOES-16 Lat,Lon NOAA-19 Lat,Lon Distance(km) Time Diff (sec)
1 02/04/2017 09:16:22 0.03, -89.48 0.79, -92.91 390.68 80
2 02/05/2017 09:04:56 0.03, -89.49 0.17, -90.13 72.72 80
3 02/06/2017 08:50:51 0.03, -89.50 -0.44, -87.34 245.30 80
4 02/08/2017 21:12:31 -0.04, -89.51 -0.72, -92.51 341.56 80
5 02/09/2017 21:01:05 -0.04, -89.53 -0.11, -89.72 23.11 80
6 02/10/2017 20:52:21 -0.04, -89.54 0.57, -86.95 295.65 80
7 02/13/2017 09:14:02 0.05, -89.59 0.65, -92.11 288.86 80
8 02/14/2017 08:59:57 0.05, -89.60 -0.03, -89.34 30.30 80
9 02/15/2017 08:48:32 0.05, -89.62 -0.66, -86.56 349.45 80




NCC Satellite Simultaneous Nadir Overpasses (SNOs) Prediction Service
